Temperature
9 11 10 10 10 11 11 11 11 11 10 10 11 12 12 11 10 11 10 10 10 9 9 9 9 9 10 10 10 10 10 10 10 10 10 10 10 10 10 11 11 11 11 11
11 10 9 9 9 10 10 11 11 10 10 10 11 11 12 11 11 10 10 10 10 9 9 9 9 9 9 9 9 9 9 9 10 10 10 10 10 10 10 10 10 10 10 10
10 9 8 9 9 10 10 10 10 10 10 10 10 12 12 12 10 10 9 9 9 9 9 9 9 9 9 9 9 9 9 9 9 9 9 9 10 10 10 9 9 9 9 9
9 8 8 9 9 10 10 9 9 9 10 11 10 12 13 12 11 11 10 10 9 9 8 8 9 9 9 9 9 9 9 8 9 9 9 9 9 9 9 9 9 9 9 9
9 8 9 9 9 9 9 9 9 9 9 10 10 10 13 12 12 12 11 10 9 9 8 8 8 9 9 9 8 8 8 8 8 8 8 8 8 8 8 8 8 8 8 9
8 8 8 8 8 8 8 9 9 9 9 10 10 10 12 13 12 12 12 10 9 8 8 8 8 8 8 8 8 8 8 8 8 7 7 7 7 7 7 7 7 8 8 8
9 8 8 8 9 9 9 10 10 10 11 11 9 9 12 13 12 11 11 10 9 8 8 8 8 8 8 8 8 8 8 7 7 7 7 7 7 7 7 7 7 7 7 7
9 9 8 8 8 9 9 9 10 11 12 12 9 10 13 12 10 9 9 9 8 8 8 8 8 8 8 8 8 8 7 7 7 7 7 7 7 6 6 6 6 7 7 7
9 9 8 7 7 8 9 9 9 9 9 9 12 11 12 11 11 10 10 9 9 8 8 7 7 8 8 8 8 7 7 7 7 7 6 6 6 6 6 6 6 6 6 7
8 8 8 7 7 7 8 8 8 8 9 11 12 12 13 12 12 11 11 10 9 8 8 7 7 7 8 7 7 7 7 7 6 6 6 6 6 6 6 6 6 6 6 6
7 7 8 8 8 8 7 7 8 8 8 9 11 13 13 12 11 11 11 9 9 8 7 7 7 7 7 7 7 7 7 6 6 6 6 6 6 6 6 6 6 6 6 6
7 7 8 8 7 7 8 8 8 8 8 8 9 11 12 11 10 9 9 9 8 8 7 7 7 7 7 7 7 7 7 6 6 6 6 6 5 5 5 6 6 5 5 5
7 7 8 9 8 6 7 7 7 8 7 8 8 11 11 10 10 9 9 8 8 7 7 7 7 7 7 7 7 6 6 6 6 6 6 5 5 5 5 5 5 5 5 5
6 7 7 9 9 8 7 7 7 7 7 8 8 10 11 11 10 10 9 8 8 7 7 7 7 7 7 7 7 6 6 6 6 5 5 5 5 5 5 5 5 5 5 5
6 6 6 7 7 7 7 7 7 6 7 7 9 9 10 11 10 9 8 8 7 7 7 7 7 6 6 6 6 6 6 6 5 5 5 5 5 5 5 4 4 4 4 4
6 6 5 5 6 6 5 6 7 7 7 7 8 8 10 10 8 8 8 7 7 7 7 6 6 7 6 6 6 6 6 6 5 5 5 5 5 4 4 4 4 4 4 4
5 5 5 6 6 5 6 8 7 7 7 7 7 9 10 9 8 8 8 7 7 7 6 6 6 6 6 6 6 6 6 6 5 5 5 5 5 4 4 4 4 3 3 3
5 5 5 5 5 6 9 7 7 7 7 7 7 8 8 8 7 6 7 7 7 7 6 6 6 6 6 6 6 6 6 5 5 5 5 5 4 4 4 4 3 3 3 3
5 5 5 5 6 7 9 7 6 6 7 8 7 8 7 6 6 7 7 7 6 6 6 6 6 6 6 6 6 6 6 5 5 5 5 5 4 4 4 4 3 3 3 3
3 4 5 5 5 6 9 7 5 6 8 8 7 7 7 6 8 9 7 7 6 6 6 6 6 6 6 6 5 5 5 5 5 5 5 4 4 4 4 3 3 3 3 2
2 3 3 4 5 7 8 6 5 7 9 7 6 6 6 6 7 7 6 6 6 6 6 6 6 6 6 5 5 5 5 5 5 5 4 4 4 4 3 3 3 3 2 2
4 4 4 4 4 6 7 5 7 9 7 6 6 6 5 5 6 5 5 5 5 5 5 5 5 6 5 5 5 5 5 5 4 4 4 4 3 3 3 3 3 2 2 2
5 6 6 6 7 8 6 7 7 6 6 6 6 6 5 5 5 5 5 5 5 5 5 5 5 5 5 5 5 5 5 4 4 4 4 3 3 3 3 2 2 2 2 2
5 4 5 5 6 7 6 6 6 6 5 5 5 5 5 4 4 4 4 4 5 5 5 5 5 5 5 5 5 5 4 4 4 3 3 3 3 3 2 2 2 2 2 2
6 4 4 5 6 6 6 6 6 6 5 5 5 4 4 4 4 4 4 4 4 4 4 4 4 5 5 5 5 5 4 4 4 3 3 3 3 2 2 2 2 2 2 1
5 5 5 6 7 6 6 6 5 5 5 4 4 4 4 3 3 3 3 3 3 4 4 4 4 4 4 4 4 4 4 4 3 3 3 3 3 2 2 2 2 2 1 1
Wind_Speed
4 5 5 4 3 2 3 2 1 1 2 3 5 7 7 5 6 6 6 5 5 5 3 2 2 2 1 1 2 3 4 4 4 3 3 3 3 3 3 3 4 4 4 4
5 6 4 2 3 3 2 2 0 1 2 3 5 9 7 6 7 6 6 6 5 5 4 3 3 2 2 2 2 3 3 4 4 3 3 3 4 4 4 4 4 4 4 4
5 3 1 2 3 3 2 1 1 2 3 2 5 6 5 5 5 6 7 6 6 5 5 4 3 3 3 3 3 3 3 4 4 4 3 3 3 3 3 3 3 4 4 3
4 2 1 2 2 1 0 1 2 2 3 1 2 4 5 5 6 7 7 6 6 5 5 4 4 4 4 3 3 3 3 3 3 3 3 4 4 4 4 4 4 4 4 4
3 1 1 1 2 1 1 1 1 2 2 3 2 4 5 4 6 7 7 6 6 5 5 5 5 4 4 3 3 3 3 3 3 3 3 4 4 4 4 4 4 4 3 3
2 0 1 1 1 0 0 1 1 1 2 3 3 4 5 4 5 5 5 5 5 5 5 5 5 4 4 3 3 3 4 3 3 3 3 4 4 4 4 4 4 4 3 3
2 1 1 0 0 1 1 1 1 2 2 3 2 5 8 4 4 5 5 5 4 5 5 5 5 5 4 4 4 4 4 4 4 4 4 4 4 5 5 5 4 4 3 3
2 0 0 1 1 1 1 2 2 3 3 3 3 7 5 3 4 6 6 6 5 4 5 5 6 5 5 5 5 5 5 5 4 4 4 4 4 4 4 4 4 4 4 3
2 1 1 1 1 1 1 1 1 2 2 5 5 6 7 4 4 4 4 4 5 5 5 6 6 6 6 6 5 5 6 5 5 4 4 4 4 4 4 4 4 4 3 3
1 3 1 1 2 1 2 1 2 2 3 5 6 6 4 3 3 2 3 4 5 5 6 6 6 6 6 6 6 6 6 6 5 5 4 4 4 4 4 3 4 4 3 3
1 2 2 2 4 4 4 3 3 2 3 4 5 4 2 4 2 3 4 5 6 6 6 6 6 6 6 6 6 6 6 6 5 5 4 4 4 3 3 3 4 3 3 3
1 2 4 4 1 1 4 5 5 4 4 4 5 7 0 3 3 4 6 7 7 7 7 7 6 6 6 6 6 6 6 6 5 5 5 4 4 3 3 3 3 3 3 3
2 2 4 2 3 4 5 6 7 5 4 6 6 7 2 1 4 6 8 9 8 8 8 7 6 6 6 6 6 6 6 6 5 5 5 4 4 4 4 4 3 3 3 3
3 5 7 7 5 3 7 8 10 9 7 9 14 15 12 10 11 12 11 11 10 9 8 7 7 6 6 6 6 6 6 6 5 5 5 5 5 4 4 4 3 3 3 3
3 6 8 13 14 13 16 17 16 18 17 14 15 17 20 16 15 14 12 11 10 9 8 7 7 7 7 6 6 6 6 6 5 5 6 6 5 4 4 3 3 3 3 3
3 5 5 9 10 12 17 20 21 21 21 23 24 24 20 14 11 11 11 10 10 10 9 9 8 8 8 7 7 7 7 6 6 7 7 6 5 4 4 4 4 4 3 3
4 4 4 7 7 10 12 12 14 12 14 14 18 15 12 11 11 11 11 11 11 11 10 10 9 9 8 8 7 8 7 6 7 7 6 6 5 5 5 4 4 4 4 3
7 5 4 6 7 8 4 2 6 11 13 15 16 15 13 12 12 12 12 12 11 10 10 10 9 9 8 7 7 7 6 7 7 7 7 6 6 6 5 5 5 5 4 4
11 8 5 4 6 10 9 4 5 6 7 10 14 15 13 10 10 9 7 7 10 11 11 10 10 9 8 7 7 7 7 7 7 8 8 7 7 6 6 6 6 5 5 5
6 9 7 6 6 8 4 3 3 3 5 3 6 8 7 6 7 7 6 9 10 11 10 9 9 8 8 8 6 7 8 8 9 9 8 7 7 7 7 7 6 5 5 5
5 7 11 12 9 10 7 4 5 4 3 1 4 6 6 7 9 11 11 11 11 11 10 9 8 8 8 7 7 8 9 10 9 7 7 7 7 7 7 6 6 5 5 5
9 8 9 8 9 10 5 7 7 5 4 4 6 7 9 11 13 13 13 12 12 11 10 8 8 8 7 7 8 9 11 9 7 7 7 7 7 6 6 6 6 6 5 5
10 10 7 10 11 6 6 9 7 5 8 9 10 11 11 13 15 15 14 13 12 11 10 8 8 9 8 7 8 11 10 7 7 7 8 7 7 6 6 7 7 6 6 5
7 8 8 10 14 15 13 14 14 13 14 14 13 13 13 14 16 16 14 13 12 11 10 8 8 9 9 8 9 10 9 7 8 8 8 7 7 7 6 6 6 6 6 6
9 7 9 14 16 16 14 13 13 13 13 14 14 14 14 15 16 15 14 13 12 11 9 9 9 10 11 9 9 9 8 8 9 9 8 7 7 7 6 6 6 7 7 6
12 13 13 15 14 13 15 13 12 14 15 15 15 15 14 14 15 15 14 13 12 11 10 9 10 11 11 9 9 8 8 9 9 8 8 7 6 6 6 6 5 6 7 6
Wind_Direction
39 86 80 64 45 85 141 162 193 313 343 287 261 269 269 256 241 240 236 230 227 232 235 229 221 223 253 287 311 324 333 336 335 330 320 309 302 305 304 306 301 298 295 285
95 68 48 65 88 100 132 157 313 321 338 285 279 276 269 245 233 237 238 234 232 230 224 221 227 229 244 269 294 308 319 325 327 319 312 294 295 292 295 291 293 297 294 290
82 63 46 100 94 82 85 196 303 310 311 257 290 264 231 225 232 243 243 242 243 239 238 234 232 235 245 261 282 296 308 314 316 313 304 296 288 283 283 289 299 306 302 291
72 59 99 90 62 8 56 352 286 292 295 289 314 279 243 227 237 236 235 233 239 240 242 244 241 243 248 258 268 277 289 301 307 303 294 292 284 288 291 298 297 301 302 294
82 63 66 50 357 329 8 322 281 276 273 279 236 259 262 219 236 228 223 228 239 244 246 248 248 249 254 258 261 268 280 292 301 298 291 288 285 287 290 293 295 297 302 310
69 43 342 352 357 7 27 193 167 207 241 256 235 244 264 221 226 223 222 240 251 252 250 250 249 248 251 254 256 262 271 283 293 292 285 282 285 292 293 294 296 297 293 295
38 108 59 341 161 126 298 273 265 234 235 250 175 246 256 252 243 246 252 259 267 264 256 254 250 248 251 253 256 260 266 273 281 283 282 281 282 281 283 286 286 288 287 290
355 225 65 344 308 286 286 297 299 284 279 290 225 246 259 276 266 257 258 261 267 268 258 257 255 254 254 254 256 259 263 269 273 275 279 282 284 281 280 283 284 284 284 289
338 294 53 342 314 259 227 216 348 291 286 274 256 266 280 239 242 239 245 258 272 273 267 265 261 255 256 256 255 257 260 264 266 268 271 275 279 280 282 284 282 284 289 295
313 283 270 309 194 188 301 175 192 232 276 278 274 260 251 219 222 234 260 279 289 290 282 274 267 260 256 254 254 253 251 255 261 265 267 272 276 278 280 278 279 280 283 287
277 273 274 233 220 213 179 190 212 231 261 275 287 271 230 235 255 271 283 295 298 292 287 282 276 268 261 254 249 247 247 251 256 259 262 265 269 270 273 274 274 273 273 271
201 263 269 253 236 302 237 223 205 234 242 238 271 276 299 248 274 284 292 301 299 291 287 281 274 268 259 251 246 244 245 246 249 252 253 258 263 262 263 267 269 268 267 267
183 232 284 238 187 196 226 222 219 236 253 235 243 260 127 248 289 295 297 301 298 290 287 280 272 265 259 253 248 245 244 245 248 247 246 249 251 252 254 260 266 264 262 262
208 234 239 262 290 251 243 234 220 219 231 243 241 260 268 279 293 301 301 299 296 289 281 274 271 267 261 254 248 245 244 243 242 240 241 244 245 246 251 257 260 259 258 258
219 253 252 264 272 270 264 257 240 230 234 246 259 265 273 283 291 294 295 295 292 287 283 277 271 268 261 255 249 245 243 238 232 231 234 240 242 242 243 245 249 251 251 253
226 256 273 274 267 268 268 258 247 243 243 247 260 271 276 286 284 284 288 290 287 284 282 280 275 268 262 255 251 246 241 234 227 228 231 233 232 233 235 237 239 240 241 245
216 232 264 275 297 295 269 251 230 225 226 232 245 255 278 285 286 289 293 288 283 284 282 279 276 269 264 258 250 245 241 233 227 229 230 227 225 228 229 229 229 233 235 236
218 216 250 284 300 257 254 183 224 232 244 234 246 262 274 282 293 290 283 279 283 286 283 280 276 272 266 260 251 244 236 230 227 228 229 226 223 227 227 226 228 230 228 229
219 217 237 256 273 278 282 247 205 223 266 241 244 260 274 289 294 283 273 270 284 288 284 282 276 272 266 257 249 238 235 230 227 228 228 225 222 224 224 227 229 227 227 228
201 217 230 235 253 259 277 145 164 216 267 237 232 264 282 288 295 308 319 301 295 292 286 283 278 271 263 255 243 233 236 233 232 231 229 224 220 222 225 228 227 224 224 227
173 203 223 233 247 265 267 169 161 235 313 338 263 273 272 268 284 304 307 301 294 293 289 285 276 268 262 253 238 236 238 238 237 232 227 223 220 223 226 225 222 220 219 221
201 199 209 211 227 253 188 161 206 266 317 293 286 281 278 280 289 295 296 297 295 292 288 282 274 269 263 247 235 239 243 243 235 224 223 224 222 220 219 220 219 216 215 219
220 216 215 213 232 266 195 222 252 276 278 285 288 288 286 287 290 293 294 293 293 289 285 281 273 270 263 246 234 240 245 238 226 221 223 223 220 218 214 214 215 213 214 219
231 228 239 252 259 264 264 263 269 269 269 276 282 286 284 284 288 290 290 290 290 287 283 280 275 270 265 253 241 241 243 229 223 225 225 220 216 217 214 215 214 215 215 218
239 214 238 256 269 280 271 262 267 273 274 276 280 280 278 282 285 286 287 287 286 283 279 274 267 266 265 261 252 245 235 221 221 225 224 220 218 216 215 215 216 219 222 222
233 232 243 259 266 269 280 283 279 279 280 281 283 283 281 280 282 283 282 283 283 281 278 273 269 267 267 262 256 248 232 220 217 220 220 218 216 214 213 213 219 222 231 228
Height
1514 1513 1514 1516 1516 1515 1514 1513 1512 1514 1517 1515 1511 1509 1507 1508 1509 1508 1508 1508 1508 1507 1507 1507 1507 1507 1507 1507 1506 1505 1504 1503 1502 1501 1500 1499 1498 1497 1496 1496 1495 1495 1494 1494
1515 1518 1521 1520 1519 1517 1515 1514 1514 1515 1517 1515 1511 1507 1504 1505 1505 1506 1506 1505 1506 1506 1506 1505 1505 1505 1505 1504 1503 1503 1501 1500 1499 1498 1497 1496 1495 1494 1494 1493 1492 1491 1491 1491
1517 1523 1523 1521 1519 1517 1517 1516 1516 1517 1516 1515 1512 1501 1500 1501 1503 1504 1504 1504 1504 1503 1503 1503 1503 1502 1502 1501 1501 1500 1499 1498 1496 1495 1494 1493 1492 1491 1490 1490 1489 1488 1488 1487
1521 1525 1524 1522 1521 1519 1517 1520 1520 1519 1514 1510 1513 1504 1496 1497 1499 1500 1501 1501 1501 1501 1501 1501 1500 1500 1499 1499 1498 1497 1496 1495 1494 1493 1492 1490 1489 1488 1487 1487 1486 1485 1484 1484
1523 1525 1524 1522 1523 1522 1521 1522 1521 1519 1516 1514 1511 1510 1494 1496 1495 1495 1497 1498 1499 1499 1498 1498 1498 1497 1497 1496 1496 1495 1494 1492 1491 1490 1489 1488 1487 1486 1484 1483 1482 1482 1481 1481
1525 1527 1526 1525 1525 1525 1524 1522 1521 1520 1515 1512 1509 1508 1494 1489 1490 1491 1494 1496 1496 1496 1496 1496 1495 1495 1495 1494 1493 1492 1491 1490 1489 1487 1486 1485 1484 1483 1482 1481 1479 1479 1478 1477
1524 1526 1527 1527 1524 1524 1523 1518 1514 1511 1509 1502 1511 1508 1494 1487 1490 1492 1493 1493 1494 1494 1493 1493 1492 1492 1492 1491 1490 1489 1489 1487 1486 1485 1484 1483 1481 1480 1479 1478 1477 1476 1475 1474
1524 1523 1526 1527 1525 1523 1522 1520 1517 1511 1504 1499 1508 1501 1487 1488 1490 1491 1491 1492 1492 1491 1491 1490 1490 1489 1489 1488 1488 1487 1486 1485 1484 1482 1481 1480 1479 1478 1476 1475 1474 1473 1472 1472
1524 1523 1527 1527 1527 1526 1522 1521 1523 1520 1518 1513 1495 1493 1486 1486 1487 1488 1489 1489 1489 1489 1488 1487 1487 1486 1486 1485 1485 1484 1483 1482 1481 1480 1478 1477 1476 1475 1474 1473 1472 1471 1470 1469
1528 1527 1526 1527 1527 1527 1526 1524 1523 1521 1515 1502 1491 1489 1482 1481 1482 1485 1486 1487 1487 1486 1486 1485 1484 1483 1483 1482 1481 1481 1480 1479 1478 1477 1476 1474 1473 1472 1471 1470 1469 1468 1467 1466
1530 1529 1525 1525 1523 1520 1525 1525 1522 1520 1518 1510 1496 1483 1479 1480 1482 1483 1484 1485 1485 1484 1483 1482 1481 1480 1479 1478 1478 1477 1476 1475 1474 1473 1472 1471 1470 1469 1468 1467 1466 1465 1464 1463
1531 1529 1523 1521 1523 1525 1522 1520 1520 1518 1515 1515 1506 1489 1480 1482 1483 1484 1484 1483 1482 1481 1480 1479 1478 1477 1476 1475 1474 1474 1473 1472 1471 1470 1469 1468 1467 1466 1465 1464 1463 1462 1461 1460
1530 1529 1522 1513 1521 1525 1522 1520 1519 1518 1517 1512 1506 1486 1481 1483 1483 1483 1482 1481 1480 1478 1477 1476 1475 1474 1472 1472 1471 1470 1469 1468 1468 1467 1466 1465 1464 1463 1462 1461 1460 1459 1458 1457
1530 1526 1522 1513 1507 1513 1515 1516 1517 1518 1514 1504 1495 1482 1477 1479 1480 1480 1480 1478 1477 1475 1474 1472 1471 1470 1469 1468 1467 1466 1466 1465 1464 1463 1463 1462 1461 1460 1459 1458 1457 1456 1455 1454
1528 1523 1520 1516 1514 1514 1512 1510 1510 1510 1504 1500 1485 1481 1474 1476 1478 1478 1477 1475 1473 1472 1470 1469 1467 1466 1465 1464 1463 1463 1462 1461 1461 1460 1459 1458 1458 1457 1456 1455 1454 1453 1452 1451
1526 1522 1521 1515 1511 1511 1507 1500 1500 1499 1497 1492 1487 1480 1473 1475 1476 1475 1473 1472 1470 1468 1466 1465 1464 1462 1461 1460 1459 1459 1458 1457 1457 1456 1455 1455 1454 1454 1453 1452 1451 1450 1449 1448
1523 1522 1520 1509 1508 1507 1494 1484 1486 1487 1484 1484 1481 1473 1472 1473 1472 1471 1470 1468 1466 1464 1463 1461 1460 1458 1457 1456 1455 1455 1454 1453 1452 1452 1451 1451 1450 1450 1449 1449 1448 1447 1446 1445
1520 1520 1517 1511 1508 1501 1478 1481 1481 1481 1478 1478 1475 1471 1471 1471 1469 1468 1466 1464 1462 1460 1458 1457 1455 1454 1453 1452 1451 1450 1450 1449 1448 1448 1447 1447 1447 1446 1446 1445 1444 1444 1443 1442
1517 1517 1515 1512 1503 1487 1476 1477 1479 1479 1473 1470 1470 1469 1469 1468 1466 1463 1461 1460 1458 1456 1454 1452 1451 1449 1448 1447 1446 1445 1445 1444 1444 1443 1443 1443 1443 1442 1442 1441 1441 1440 1439 1439
1516 1516 1514 1509 1505 1490 1470 1477 1477 1479 1469 1466 1467 1466 1466 1466 1462 1458 1458 1456 1454 1452 1450 1448 1446 1444 1443 1442 1441 1440 1440 1439 1439 1439 1439 1438 1438 1438 1438 1437 1437 1436 1436 1435
1513 1513 1510 1504 1498 1480 1471 1475 1477 1474 1463 1465 1464 1464 1464 1463 1460 1458 1454 1452 1450 1447 1445 1443 1441 1439 1438 1437 1436 1435 1435 1434 1434 1434 1434 1434 1434 1433 1433 1433 1433 1432 1432 1432
1497 1498 1499 1496 1494 1479 1468 1472 1470 1464 1463 1463 1462 1461 1460 1457 1455 1452 1450 1447 1445 1442 1440 1438 1436 1435 1433 1432 1431 1430 1429 1429 1429 1429 1429 1429 1429 1429 1429 1429 1428 1428 1428 1428
1487 1482 1479 1479 1471 1464 1464 1463 1462 1461 1460 1459 1458 1457 1455 1453 1450 1448 1445 1442 1440 1438 1436 1433 1431 1429 1428 1427 1426 1424 1424 1424 1423 1423 1423 1424 1424 1424 1424 1424 1424 1424 1423 1423
1480 1479 1477 1472 1463 1461 1461 1459 1458 1458 1456 1454 1453 1452 1450 1447 1444 1442 1439 1437 1434 1432 1430 1428 1426 1424 1423 1422 1420 1419 1419 1418 1418 1418 1418 1418 1418 1419 1419 1419 1419 1419 1419 1419
1470 1473 1470 1464 1459 1457 1454 1453 1452 1451 1450 1448 1447 1445 1443 1441 1438 1435 1433 1430 1428 1426 1424 1422 1420 1418 1417 1416 1415 1414 1413 1413 1412 1412 1413 1413 1413 1413 1413 1414 1414 1414 1414 1415
1463 1462 1461 1453 1452 1451 1448 1448 1447 1445 1443 1442 1440 1437 1436 1434 1431 1428 1426 1424 1422 1419 1417 1416 1414 1412 1411 1410 1409 1408 1407 1407 1407 1407 1407 1407 1408 1408 1408 1408 1409 1409 1410 1410